THY765 OMDB-LTFM

Flight info

Callsign THY765
Flight time N/A
Altitude 32000
Route RIDAP2F RIDAP M557 TUMAK L602 GADSI M860 KODAV/N0460F340 M860 NINVA UM860 NAREN UT368 UMLEN UL718 ETESU UT888 SIV UL615 YAVRU UA4 ERSEN ERSEN1R
Aircraft A321/M-V/N

Departure

Time 2026-04-20 15:10
Airport Dubai International Airport (OMDB)

Arrival

Time N/A
Airport İstanbul Airport (LTFM)
Time Latitude Longitude Altitude Speed Heading
2026-04-20 14:17 25.25966 55.34324 21 ft 0 kts 211°
2026-04-20 14:18 25.25849 55.34567 24 ft 0 kts 211°
2026-04-20 14:19 25.25845 55.34564 22 ft 0 kts 211°
2026-04-20 14:19 25.25844 55.34564 24 ft 1 kts 211°
2026-04-20 14:19 25.25841 55.34562 26 ft 0 kts 211°
2026-04-20 14:20 25.25840 55.34561 24 ft 0 kts 211°
2026-04-20 14:20 25.25839 55.34560 24 ft 0 kts 211°
2026-04-20 14:53 25.25854 55.34570 23 ft 4 kts 211°
2026-04-20 14:53 25.25877 55.34586 23 ft 4 kts 211°
2026-04-20 14:54 25.25901 55.34600 22 ft 4 kts 200°
2026-04-20 14:54 25.25927 55.34606 25 ft 4 kts 174°
2026-04-20 14:54 25.25947 55.34597 23 ft 2 kts 123°
2026-04-20 14:54 25.25949 55.34595 23 ft 0 kts 122°
2026-04-20 14:58 25.25944 55.34603 23 ft 3 kts 122°
2026-04-20 14:58 25.25924 55.34639 21 ft 8 kts 122°
2026-04-20 14:58 25.25890 55.34700 21 ft 11 kts 122°
2026-04-20 14:58 25.25850 55.34771 22 ft 11 kts 122°
2026-04-20 14:59 25.25808 55.34845 23 ft 12 kts 122°
2026-04-20 14:59 25.25766 55.34921 23 ft 12 kts 122°
2026-04-20 14:59 25.25772 55.35001 21 ft 12 kts 41°
2026-04-20 14:59 25.25840 55.35049 22 ft 12 kts 31°
2026-04-20 15:00 25.25912 55.35097 21 ft 12 kts 31°
2026-04-20 15:00 25.25985 55.35146 23 ft 12 kts 31°
2026-04-20 15:00 25.26057 55.35195 23 ft 12 kts 31°
2026-04-20 15:00 25.26126 55.35245 24 ft 11 kts 45°
2026-04-20 15:01 25.26120 55.35322 23 ft 11 kts 120°
2026-04-20 15:01 25.26079 55.35396 23 ft 12 kts 122°
2026-04-20 15:01 25.26034 55.35474 23 ft 12 kts 122°
2026-04-20 15:01 25.25989 55.35555 23 ft 13 kts 121°
2026-04-20 15:02 25.25942 55.35638 23 ft 13 kts 122°
2026-04-20 15:02 25.25894 55.35724 23 ft 13 kts 121°
2026-04-20 15:02 25.25845 55.35812 23 ft 13 kts 121°
2026-04-20 15:02 25.25795 55.35900 23 ft 13 kts 122°
2026-04-20 15:03 25.25745 55.35988 23 ft 14 kts 122°
2026-04-20 15:03 25.25694 55.36079 25 ft 14 kts 122°
2026-04-20 15:03 25.25644 55.36170 24 ft 14 kts 121°
2026-04-20 15:03 25.25592 55.36262 25 ft 14 kts 122°
2026-04-20 15:04 25.25538 55.36357 23 ft 15 kts 122°
2026-04-20 15:04 25.25484 55.36453 24 ft 15 kts 122°
2026-04-20 15:04 25.25430 55.36549 24 ft 15 kts 122°
2026-04-20 15:04 25.25375 55.36649 25 ft 16 kts 121°
2026-04-20 15:05 25.25318 55.36751 25 ft 16 kts 121°
2026-04-20 15:05 25.25261 55.36852 25 ft 16 kts 122°
2026-04-20 15:05 25.25203 55.36955 24 ft 16 kts 122°
2026-04-20 15:05 25.25145 55.37057 26 ft 15 kts 122°
2026-04-20 15:06 25.25089 55.37157 26 ft 15 kts 122°
2026-04-20 15:06 25.25032 55.37259 26 ft 16 kts 121°
2026-04-20 15:06 25.24975 55.37361 29 ft 16 kts 122°
2026-04-20 15:06 25.24916 55.37464 27 ft 16 kts 122°
2026-04-20 15:07 25.24857 55.37570 26 ft 17 kts 121°
2026-04-20 15:07 25.24797 55.37678 25 ft 17 kts 122°
2026-04-20 15:07 25.24734 55.37788 24 ft 17 kts 122°
2026-04-20 15:07 25.24681 55.37883 25 ft 9 kts 122°
2026-04-20 15:08 25.24671 55.37948 24 ft 9 kts 59°
2026-04-20 15:08 25.24717 55.37985 26 ft 7 kts 31°
2026-04-20 15:08 25.24747 55.38005 28 ft 4 kts 31°
2026-04-20 15:08 25.24776 55.38025 30 ft 7 kts 31°
2026-04-20 15:09 25.24818 55.38006 30 ft 8 kts 303°
2026-04-20 15:09 25.24831 55.37983 30 ft 0 kts 301°
2026-04-20 15:09 25.24872 55.37908 30 ft 40 kts 301°
2026-04-20 15:09 25.25134 55.37433 32 ft 103 kts 302°
2026-04-20 15:10 25.25606 55.36580 30 ft 155 kts 301°
2026-04-20 15:10 25.26250 55.35446 110 ft 187 kts 303°
2026-04-20 15:10 25.26928 55.34256 738 ft 182 kts 301°
2026-04-20 15:10 25.27587 55.33072 1351 ft 181 kts 301°
2026-04-20 15:11 25.28251 55.31867 1674 ft 187 kts 302°
2026-04-20 15:11 25.28930 55.30632 2059 ft 189 kts 302°
2026-04-20 15:11 25.29616 55.29389 2464 ft 190 kts 303°
2026-04-20 15:11 25.30365 55.28149 2747 ft 198 kts 306°
2026-04-20 15:12 25.31167 55.26890 3096 ft 201 kts 307°
2026-04-20 15:12 25.31979 55.25627 3482 ft 202 kts 307°
2026-04-20 15:12 25.32781 55.24377 3864 ft 202 kts 307°
2026-04-20 15:12 25.33602 55.23096 4148 ft 209 kts 307°
2026-04-20 15:13 25.34473 55.21738 4284 ft 223 kts 307°
2026-04-20 15:13 25.35350 55.20259 4438 ft 237 kts 297°
2026-04-20 15:13 25.35808 55.18479 4783 ft 250 kts 277°
2026-04-20 15:13 25.35788 55.16479 4917 ft 270 kts 269°
2026-04-20 15:14 25.35704 55.14372 5305 ft 277 kts 269°
2026-04-20 15:14 25.35620 55.12234 5837 ft 280 kts 269°
2026-04-20 15:14 25.35536 55.10080 6395 ft 281 kts 269°
2026-04-20 15:14 25.35454 55.07918 6930 ft 283 kts 269°
2026-04-20 15:15 25.35374 55.05740 7470 ft 284 kts 269°
2026-04-20 15:15 25.35295 55.03552 8024 ft 286 kts 269°
2026-04-20 15:15 25.35214 55.01353 8580 ft 287 kts 269°
2026-04-20 15:15 25.35134 54.99139 9145 ft 289 kts 269°
2026-04-20 15:16 25.35054 54.96917 9703 ft 290 kts 269°
2026-04-20 15:16 25.34974 54.94679 10180 ft 294 kts 269°
2026-04-20 15:16 25.34901 54.92349 10312 ft 311 kts 272°
2026-04-20 15:16 25.35136 54.89920 10432 ft 326 kts 284°
2026-04-20 15:17 25.35798 54.87463 10556 ft 341 kts 289°
2026-04-20 15:17 25.36538 54.84911 10663 ft 356 kts 289°
2026-04-20 15:17 25.37301 54.82265 10942 ft 364 kts 288°
2026-04-20 15:17 25.38070 54.79584 11409 ft 367 kts 288°
2026-04-20 15:18 25.38837 54.76886 11911 ft 369 kts 288°
2026-04-20 15:18 25.39607 54.74173 12411 ft 371 kts 288°
2026-04-20 15:18 25.40381 54.71448 12904 ft 373 kts 288°
2026-04-20 15:18 25.41164 54.68706 13409 ft 375 kts 288°
2026-04-20 15:19 25.41951 54.65952 13864 ft 377 kts 288°
2026-04-20 15:19 25.42741 54.63180 14302 ft 379 kts 288°
2026-04-20 15:19 25.43538 54.60389 14739 ft 382 kts 288°
2026-04-20 15:19 25.44355 54.57585 15182 ft 384 kts 288°
2026-04-20 15:20 25.45189 54.54769 15633 ft 387 kts 289°
2026-04-20 15:20 25.46022 54.51974 16072 ft 389 kts 288°
2026-04-20 15:20 25.46885 54.49085 16514 ft 392 kts 288°
2026-04-20 15:20 25.47732 54.46252 16955 ft 394 kts 288°
2026-04-20 15:21 25.48591 54.43357 17414 ft 397 kts 288°
2026-04-20 15:21 25.49448 54.40446 17867 ft 399 kts 288°
2026-04-20 15:21 25.50310 54.37514 18292 ft 401 kts 287°
2026-04-20 15:21 25.51172 54.34569 18697 ft 403 kts 287°
2026-04-20 15:22 25.52036 54.31612 19097 ft 404 kts 287°
2026-04-20 15:22 25.52904 54.28647 19482 ft 406 kts 287°
2026-04-20 15:22 25.53778 54.25673 19860 ft 407 kts 287°
2026-04-20 15:22 25.54656 54.22687 20238 ft 408 kts 287°
2026-04-20 15:23 25.55539 54.19692 20616 ft 410 kts 287°
2026-04-20 15:23 25.56425 54.16690 20979 ft 411 kts 287°
2026-04-20 15:23 25.57312 54.13676 21328 ft 412 kts 287°
2026-04-20 15:23 25.57899 54.11674 21548 ft 413 kts 287°
2026-04-20 15:24 25.59085 54.07608 22000 ft 415 kts 287°
2026-04-20 15:24 25.59670 54.05590 22218 ft 416 kts 287°
2026-04-20 15:24 25.60551 54.02526 22550 ft 418 kts 286°
2026-04-20 15:24 25.61429 53.99453 22872 ft 420 kts 286°
2026-04-20 15:25 25.62309 53.96364 23209 ft 421 kts 286°
2026-04-20 15:25 25.63190 53.93269 23542 ft 421 kts 286°
2026-04-20 15:25 25.64070 53.90168 23841 ft 422 kts 286°
2026-04-20 15:25 25.64951 53.87060 24104 ft 424 kts 286°
2026-04-20 15:26 25.65836 53.83937 24369 ft 425 kts 286°
2026-04-20 15:26 25.66724 53.80807 24619 ft 427 kts 286°
2026-04-20 15:26 25.67617 53.77665 24883 ft 428 kts 286°
2026-04-20 15:26 25.68514 53.74505 25134 ft 430 kts 286°
2026-04-20 15:27 25.69412 53.71337 25377 ft 432 kts 286°
2026-04-20 15:27 25.70309 53.68158 25623 ft 433 kts 286°
2026-04-20 15:27 25.71206 53.64961 25868 ft 435 kts 286°
2026-04-20 15:27 25.72104 53.61755 26120 ft 436 kts 286°
2026-04-20 15:28 25.73005 53.58534 26362 ft 438 kts 286°
2026-04-20 15:28 25.73908 53.55305 26613 ft 439 kts 286°
2026-04-20 15:28 25.74816 53.52062 26859 ft 441 kts 286°
2026-04-20 15:28 25.75729 53.48811 27114 ft 443 kts 286°
2026-04-20 15:29 25.76649 53.45546 27373 ft 444 kts 286°
2026-04-20 15:29 25.77569 53.42282 27722 ft 443 kts 286°
2026-04-20 15:29 25.78485 53.39023 28065 ft 442 kts 286°
2026-04-20 15:29 25.79397 53.35771 28409 ft 441 kts 286°
2026-04-20 15:30 25.80304 53.32520 28743 ft 440 kts 286°
2026-04-20 15:30 25.81209 53.29279 29082 ft 440 kts 286°
2026-04-20 15:30 25.82115 53.26037 29416 ft 439 kts 286°
2026-04-20 15:30 25.83001 53.22851 29803 ft 437 kts 285°
2026-04-20 15:31 25.83897 53.19643 30183 ft 434 kts 286°
2026-04-20 15:31 25.85012 53.16541 30496 ft 433 kts 292°
2026-04-20 15:31 25.86256 53.13501 30803 ft 432 kts 292°
2026-04-20 15:31 25.87495 53.10473 31094 ft 430 kts 292°
2026-04-20 15:32 25.88727 53.07451 31394 ft 428 kts 292°
2026-04-20 15:32 25.89951 53.04440 31686 ft 427 kts 292°
2026-04-20 15:32 25.91168 53.01439 31970 ft 426 kts 292°
2026-04-20 15:32 25.92379 52.98449 32281 ft 423 kts 292°
2026-04-20 15:33 25.93583 52.95478 32604 ft 421 kts 292°
2026-04-20 15:33 25.94785 52.92518 32886 ft 420 kts 292°
2026-04-20 15:33 25.95985 52.89568 33156 ft 418 kts 292°
2026-04-20 15:33 25.97180 52.86625 33404 ft 418 kts 292°
2026-04-20 15:34 25.98370 52.83685 33638 ft 417 kts 292°
2026-04-20 15:34 25.99558 52.80745 33817 ft 417 kts 292°
2026-04-20 15:34 26.00745 52.77800 33852 ft 418 kts 292°
2026-04-20 15:35 26.03166 52.71930 33853 ft 417 kts 294°
2026-04-20 15:35 26.05773 52.66166 33852 ft 418 kts 295°
2026-04-20 15:36 26.08428 52.60419 33849 ft 418 kts 295°
2026-04-20 15:36 26.11044 52.54646 33850 ft 418 kts 294°
2026-04-20 15:37 26.13642 52.48858 33863 ft 418 kts 294°
2026-04-20 15:37 26.16239 52.43076 33867 ft 417 kts 294°
2026-04-20 15:38 26.18840 52.37299 33873 ft 417 kts 294°
2026-04-20 15:38 26.21422 52.31563 33868 ft 417 kts 294°
2026-04-20 15:39 26.23989 52.25770 33866 ft 417 kts 292°
2026-04-20 15:39 26.26495 52.19947 33860 ft 417 kts 292°
2026-04-20 15:40 26.28991 52.14109 33861 ft 417 kts 292°
2026-04-20 15:40 26.31504 52.08277 33862 ft 418 kts 293°
2026-04-20 15:41 26.34036 52.02436 33850 ft 419 kts 293°
2026-04-20 15:41 26.36570 51.96576 33849 ft 420 kts 292°
2026-04-20 15:42 26.38801 51.90572 33850 ft 419 kts 288°
2026-04-20 15:42 26.40833 51.84522 33856 ft 420 kts 288°
2026-04-20 15:43 26.42877 51.78424 33856 ft 420 kts 288°
2026-04-20 15:43 26.44919 51.72331 33870 ft 419 kts 288°
2026-04-20 15:44 26.46958 51.66229 33866 ft 419 kts 288°
2026-04-20 15:44 26.48998 51.60132 33869 ft 420 kts 288°
2026-04-20 15:45 26.51033 51.54021 33862 ft 420 kts 288°
2026-04-20 15:45 26.53068 51.47905 33863 ft 420 kts 288°
2026-04-20 15:46 26.55097 51.41784 33870 ft 421 kts 288°
2026-04-20 15:46 26.57124 51.35657 33880 ft 421 kts 288°
2026-04-20 15:47 26.59151 51.29519 33874 ft 421 kts 287°
2026-04-20 15:47 26.61188 51.23374 33877 ft 422 kts 287°
2026-04-20 15:48 26.63226 51.17226 33879 ft 422 kts 287°
2026-04-20 15:48 26.65259 51.11073 33881 ft 422 kts 287°
2026-04-20 15:49 26.67290 51.04912 33887 ft 422 kts 287°
2026-04-20 15:49 26.69311 50.98752 33894 ft 422 kts 287°
2026-04-20 15:50 26.71292 50.92560 33888 ft 423 kts 287°
2026-04-20 15:50 26.73266 50.86357 33888 ft 423 kts 287°
2026-04-20 15:51 26.75249 50.80159 33899 ft 422 kts 287°
2026-04-20 15:51 26.77224 50.73981 33900 ft 421 kts 287°
2026-04-20 15:52 26.79193 50.67810 33902 ft 421 kts 289°
2026-04-20 15:52 26.82237 50.62171 33909 ft 429 kts 305°
2026-04-20 15:53 26.87900 50.54424 33908 ft 428 kts 304°
2026-04-20 15:53 26.91659 50.49254 33906 ft 428 kts 305°
2026-04-20 15:54 26.95627 50.44266 33909 ft 430 kts 308°
2026-04-20 15:54 26.99796 50.39455 33912 ft 431 kts 309°
2026-04-20 15:55 27.03955 50.34624 33914 ft 430 kts 308°
2026-04-20 15:55 27.08044 50.29744 33917 ft 429 kts 308°
2026-04-20 15:56 27.12063 50.24861 33915 ft 428 kts 308°
2026-04-20 15:56 27.16170 50.20003 33918 ft 432 kts 313°
2026-04-20 15:57 27.21044 50.15881 33916 ft 437 kts 318°
2026-04-20 15:57 27.25916 50.11875 33919 ft 437 kts 318°
2026-04-20 15:58 27.30819 50.07816 33917 ft 438 kts 317°
2026-04-20 15:58 27.35719 50.03759 33919 ft 438 kts 318°
2026-04-20 15:59 27.40557 49.99615 33920 ft 436 kts 316°
2026-04-20 15:59 27.45316 49.95381 33927 ft 436 kts 315°
2026-04-20 16:00 27.50071 49.91147 33946 ft 436 kts 315°
2026-04-20 16:00 27.54852 49.86925 33935 ft 437 kts 316°
2026-04-20 16:01 27.59655 49.82708 33919 ft 438 kts 316°
2026-04-20 16:01 27.64459 49.78473 33929 ft 438 kts 316°
2026-04-20 16:02 27.69263 49.74223 33947 ft 439 kts 315°
2026-04-20 16:02 27.74078 49.69957 33932 ft 440 kts 315°
2026-04-20 16:03 27.78900 49.65684 33924 ft 441 kts 315°